QPF
0.01 0.02 0.02 0.03 0.03 0.02 0.03 0.02 0.02 0.02 0.02 0.02 0.01 0.01 0.01 0.02 0.02 0.02 0.01 0.02 0.02 0.03 0.03 0.03 0.03 0.04 0.06 0.06 0.04 0.03 0.05 0.06 0.07 0.06 0.06 0.06 0.07 0.06 0.05 0.04 0.04 0.05 0.04
0.01 0.02 0.03 0.02 0.02 0.03 0.02 0.03 0.02 0.02 0.02 0.01 0.01 0.01 0.01 0.01 0.01 0.01 0.02 0.03 0.03 0.03 0.03 0.04 0.05 0.06 0.06 0.04 0.03 0.03 0.03 0.04 0.04 0.05 0.05 0.04 0.04 0.05 0.05 0.07 0.08 0.09 0.09
0.00 0.01 0.01 0.02 0.03 0.04 0.04 0.03 0.03 0.02 0.02 0.02 0.02 0.01 0.01 0.01 0.02 0.03 0.04 0.04 0.05 0.04 0.04 0.04 0.04 0.03 0.04 0.03 0.02 0.02 0.02 0.02 0.03 0.05 0.06 0.04 0.03 0.04 0.05 0.05 0.05 0.06 0.07
0.01 0.01 0.01 0.01 0.02 0.03 0.04 0.03 0.02 0.02 0.01 0.01 0.01 0.01 0.01 0.01 0.01 0.02 0.03 0.03 0.03 0.03 0.02 0.02 0.02 0.02 0.02 0.02 0.02 0.02 0.02 0.02 0.02 0.03 0.02 0.02 0.02 0.03 0.04 0.04 0.05 0.04 0.04
0.01 0.01 0.01 0.01 0.01 0.02 0.02 0.02 0.02 0.01 0.01 0.01 0.01 0.01 0.01 0.00 0.01 0.01 0.01 0.01 0.01 0.01 0.01 0.02 0.01 0.01 0.01 0.01 0.01 0.02 0.02 0.01 0.02 0.02 0.02 0.03 0.03 0.03 0.03 0.03 0.04 0.06 0.06
0.01 0.01 0.01 0.01 0.01 0.02 0.02 0.02 0.02 0.01 0.01 0.01 0.01 0.01 0.01 0.01 0.01 0.01 0.01 0.01 0.01 0.01 0.01 0.01 0.01 0.01 0.01 0.01 0.01 0.01 0.01 0.01 0.02 0.02 0.02 0.02 0.02 0.03 0.04 0.04 0.04 0.05 0.07
0.02 0.01 0.01 0.01 0.01 0.02 0.02 0.02 0.02 0.03 0.02 0.01 0.01 0.01 0.01 0.01 0.02 0.02 0.01 0.01 0.01 0.01 0.01 0.01 0.01 0.01 0.01 0.01 0.01 0.01 0.01 0.01 0.01 0.02 0.02 0.02 0.03 0.04 0.05 0.06 0.06 0.06 0.06
0.02 0.02 0.01 0.01 0.01 0.01 0.01 0.02 0.03 0.03 0.02 0.02 0.03 0.02 0.03 0.03 0.04 0.03 0.01 0.01 0.01 0.01 0.01 0.01 0.01 0.01 0.01 0.01 0.01 0.01 0.01 0.01 0.01 0.01 0.01 0.01 0.02 0.03 0.03 0.03 0.05 0.06 0.05
0.01 0.02 0.02 0.01 0.01 0.01 0.02 0.03 0.03 0.03 0.02 0.03 0.03 0.02 0.03 0.04 0.03 0.02 0.01 0.01 0.01 0.01 0.01 0.01 0.01 0.01 0.00 0.00 0.01 0.01 0.01 0.02 0.02 0.02 0.01 0.01 0.01 0.02 0.01 0.01 0.02 0.03 0.03
0.01 0.01 0.01 0.01 0.02 0.02 0.02 0.02 0.03 0.03 0.02 0.01 0.01 0.01 0.01 0.01 0.02 0.01 0.01 0.01 0.01 0.01 0.00 0.00 0.01 0.01 0.01 0.01 0.01 0.01 0.02 0.02 0.02 0.01 0.00 0.01 0.01 0.01 0.02 0.02 0.02 0.02 0.01
0.01 0.01 0.01 0.01 0.01 0.01 0.01 0.01 0.02 0.02 0.02 0.02 0.01 0.02 0.02 0.01 0.01 0.02 0.02 0.02 0.02 0.01 0.01 0.01 0.01 0.01 0.01 0.01 0.01 0.00 0.01 0.01 0.01 0.00 0.00 0.01 0.02 0.02 0.01 0.01 0.01 0.01 0.01
0.02 0.02 0.03 0.02 0.02 0.01 0.01 0.01 0.02 0.03 0.03 0.02 0.01 0.01 0.01 0.01 0.01 0.01 0.02 0.02 0.02 0.02 0.01 0.01 0.01 0.01 0.01 0.00 0.00 0.01 0.01 0.01 0.01 0.00 0.00 0.00 0.00 0.00 0.00 0.00 0.01 0.01 0.01
0.02 0.03 0.05 0.06 0.04 0.03 0.02 0.01 0.01 0.01 0.01 0.01 0.01 0.01 0.01 0.01 0.01 0.01 0.01 0.02 0.02 0.01 0.01 0.01 0.02 0.01 0.01 0.00 0.00 0.00 0.00 0.00 0.00 0.00 0.00 0.00 0.00 0.00 0.00 0.00 0.00 0.01 0.01
0.03 0.05 0.05 0.06 0.05 0.04 0.03 0.02 0.01 0.01 0.01 0.01 0.01 0.01 0.01 0.00 0.00 0.01 0.01 0.01 0.02 0.01 0.01 0.01 0.01 0.01 0.01 0.01 0.01 0.00 0.00 0.00 0.00 0.00 0.00 0.00 0.00 0.00 0.00 0.00 0.00 0.00 0.00
0.03 0.04 0.03 0.03 0.03 0.02 0.02 0.01 0.01 0.01 0.00 0.00 0.00 0.00 0.00 0.00 0.01 0.01 0.01 0.01 0.02 0.02 0.02 0.02 0.02 0.02 0.01 0.01 0.01 0.01 0.01 0.00 0.00 0.00 0.00 0.00 0.00 0.00 0.00 0.00 0.00 0.00 0.00
0.03 0.03 0.03 0.02 0.02 0.01 0.01 0.01 0.01 0.00 0.00 0.00 0.00 0.00 0.00 0.00 0.01 0.01 0.01 0.02 0.02 0.02 0.02 0.02 0.02 0.03 0.03 0.02 0.02 0.01 0.01 0.01 0.01 0.01 0.01 0.00 0.00 0.00 0.00 0.00 0.00 0.00 0.00
0.03 0.03 0.03 0.02 0.02 0.02 0.01 0.02 0.02 0.01 0.01 0.01 0.01 0.01 0.00 0.00 0.00 0.00 0.00 0.00 0.01 0.01 0.02 0.02 0.02 0.02 0.03 0.03 0.03 0.02 0.02 0.01 0.01 0.01 0.01 0.01 0.01 0.01 0.01 0.00 0.00 0.00 0.00
0.03 0.03 0.03 0.02 0.02 0.02 0.03 0.03 0.03 0.03 0.02 0.02 0.02 0.01 0.01 0.01 0.00 0.00 0.00 0.01 0.01 0.01 0.01 0.01 0.01 0.01 0.02 0.03 0.04 0.05 0.05 0.04 0.03 0.02 0.02 0.02 0.01 0.01 0.01 0.01 0.01 0.01 0.02
0.02 0.02 0.03 0.03 0.03 0.03 0.03 0.04 0.04 0.03 0.02 0.01 0.01 0.01 0.01 0.01 0.00 0.00 0.00 0.00 0.00 0.00 0.00 0.00 0.00 0.01 0.01 0.02 0.03 0.04 0.05 0.05 0.05 0.05 0.04 0.03 0.02 0.02 0.02 0.03 0.03 0.04 0.04
0.03 0.03 0.03 0.02 0.02 0.02 0.02 0.03 0.03 0.03 0.02 0.01 0.02 0.02 0.02 0.02 0.02 0.02 0.01 0.01 0.01 0.01 0.01 0.01 0.01 0.01 0.02 0.02 0.03 0.04 0.04 0.05 0.05 0.04 0.04 0.04 0.03 0.03 0.03 0.04 0.04 0.03 0.03
0.03 0.04 0.04 0.03 0.03 0.03 0.03 0.03 0.03 0.03 0.02 0.02 0.02 0.02 0.02 0.02 0.01 0.01 0.01 0.01 0.01 0.01 0.01 0.01 0.02 0.02 0.02 0.03 0.03 0.03 0.03 0.03 0.04 0.04 0.04 0.04 0.04 0.03 0.03 0.03 0.03 0.03 0.03
0.04 0.03 0.03 0.03 0.03 0.03 0.04 0.03 0.03 0.03 0.03 0.03 0.03 0.03 0.02 0.02 0.01 0.01 0.01 0.02 0.02 0.02 0.02 0.02 0.02 0.02 0.02 0.03 0.03 0.02 0.02 0.03 0.03 0.03 0.03 0.03 0.03 0.03 0.02 0.02 0.02 0.02 0.02
0.05 0.05 0.04 0.04 0.04 0.05 0.05 0.03 0.03 0.03 0.03 0.03 0.03 0.03 0.02 0.01 0.01 0.01 0.01 0.01 0.01 0.02 0.02 0.02 0.02 0.01 0.01 0.01 0.01 0.01 0.01 0.01 0.01 0.01 0.01 0.01 0.01 0.01 0.01 0.01 0.01 0.01 0.01
0.06 0.05 0.05 0.04 0.04 0.04 0.04 0.04 0.03 0.02 0.02 0.03 0.03 0.02 0.01 0.01 0.01 0.01 0.01 0.01 0.01 0.01 0.01 0.01 0.01 0.01 0.01 0.01 0.01 0.01 0.01 0.01 0.01 0.01 0.01 0.01 0.01 0.01 0.01 0.01 0.01 0.02 0.02
0.05 0.04 0.04 0.05 0.05 0.05 0.04 0.04 0.03 0.03 0.02 0.02 0.02 0.01 0.01 0.01 0.01 0.01 0.01 0.00 0.00 0.01 0.01 0.01 0.01 0.01 0.01 0.01 0.01 0.01 0.01 0.00 0.00 0.00 0.00 0.01 0.01 0.01 0.01 0.01 0.01 0.02 0.02
0.03 0.04 0.05 0.05 0.04 0.04 0.04 0.04 0.03 0.02 0.02 0.02 0.01 0.01 0.01 0.01 0.00 0.00 0.00 0.00 0.01 0.01 0.01 0.01 0.01 0.01 0.01 0.00 0.01 0.01 0.01 0.01 0.01 0.01 0.01 0.01 0.01 0.01 0.01 0.01 0.01 0.02 0.02
MSLP
1017.50 1017.85 1018.23 1018.60 1018.90 1019.12 1019.24 1019.28 1019.29 1019.30 1019.34 1019.45 1019.63 1019.84 1020.06 1020.22 1020.28 1020.20 1019.96 1019.56 1019.06 1018.52 1018.00 1017.58 1017.32 1017.25 1017.41 1017.77 1018.30 1018.96 1019.70 1020.46 1021.20 1021.88 1022.50 1023.03 1023.47 1023.83 1024.11 1024.33 1024.48 1024.59 1024.65
1017.27 1017.64 1018.04 1018.43 1018.76 1019.01 1019.17 1019.24 1019.26 1019.28 1019.32 1019.42 1019.59 1019.81 1020.05 1020.25 1020.38 1020.39 1020.26 1019.99 1019.60 1019.15 1018.68 1018.27 1017.98 1017.85 1017.90 1018.15 1018.56 1019.11 1019.75 1020.44 1021.14 1021.81 1022.43 1022.98 1023.45 1023.84 1024.16 1024.40 1024.60 1024.75 1024.87
1017.01 1017.40 1017.83 1018.25 1018.61 1018.90 1019.09 1019.20 1019.25 1019.28 1019.32 1019.41 1019.57 1019.78 1020.02 1020.26 1020.44 1020.54 1020.51 1020.36 1020.10 1019.75 1019.36 1019.00 1018.71 1018.54 1018.52 1018.67 1018.97 1019.40 1019.95 1020.55 1021.19 1021.82 1022.41 1022.95 1023.42 1023.81 1024.13 1024.39 1024.59 1024.77 1024.92
1016.73 1017.14 1017.59 1018.04 1018.44 1018.77 1019.00 1019.15 1019.24 1019.29 1019.34 1019.43 1019.58 1019.77 1020.01 1020.25 1020.47 1020.63 1020.69 1020.65 1020.50 1020.26 1019.97 1019.67 1019.41 1019.24 1019.17 1019.24 1019.45 1019.79 1020.23 1020.75 1021.31 1021.88 1022.43 1022.94 1023.38 1023.76 1024.06 1024.31 1024.51 1024.68 1024.84
1016.42 1016.85 1017.31 1017.78 1018.22 1018.58 1018.87 1019.07 1019.20 1019.29 1019.37 1019.47 1019.60 1019.78 1020.00 1020.24 1020.47 1020.67 1020.79 1020.83 1020.78 1020.64 1020.45 1020.23 1020.02 1019.86 1019.78 1019.81 1019.95 1020.20 1020.55 1020.98 1021.46 1021.96 1022.46 1022.92 1023.33 1023.68 1023.96 1024.19 1024.38 1024.54 1024.69
1016.11 1016.53 1017.00 1017.48 1017.93 1018.34 1018.67 1018.93 1019.12 1019.25 1019.37 1019.48 1019.62 1019.78 1019.98 1020.21 1020.43 1020.64 1020.80 1020.90 1020.92 1020.88 1020.77 1020.63 1020.49 1020.37 1020.30 1020.30 1020.40 1020.58 1020.86 1021.21 1021.61 1022.04 1022.47 1022.88 1023.25 1023.57 1023.83 1024.04 1024.21 1024.35 1024.49
1015.81 1016.21 1016.66 1017.13 1017.59 1018.02 1018.39 1018.70 1018.95 1019.14 1019.30 1019.45 1019.59 1019.75 1019.93 1020.13 1020.34 1020.54 1020.72 1020.86 1020.94 1020.97 1020.95 1020.89 1020.82 1020.75 1020.71 1020.71 1020.78 1020.92 1021.13 1021.41 1021.73 1022.09 1022.46 1022.81 1023.14 1023.42 1023.66 1023.85 1024.01 1024.14 1024.25
1015.58 1015.93 1016.33 1016.77 1017.21 1017.65 1018.05 1018.40 1018.70 1018.95 1019.16 1019.34 1019.51 1019.67 1019.83 1020.01 1020.20 1020.39 1020.57 1020.73 1020.86 1020.96 1021.01 1021.04 1021.04 1021.02 1021.02 1021.04 1021.10 1021.20 1021.36 1021.56 1021.82 1022.10 1022.40 1022.70 1022.98 1023.23 1023.45 1023.63 1023.77 1023.89 1024.00
1015.46 1015.74 1016.07 1016.45 1016.86 1017.28 1017.68 1018.06 1018.40 1018.70 1018.96 1019.17 1019.36 1019.53 1019.69 1019.85 1020.02 1020.20 1020.38 1020.56 1020.73 1020.88 1021.00 1021.10 1021.17 1021.22 1021.26 1021.30 1021.35 1021.43 1021.53 1021.68 1021.85 1022.06 1022.29 1022.53 1022.76 1022.98 1023.18 1023.35 1023.49 1023.61 1023.71
1015.48 1015.68 1015.93 1016.23 1016.58 1016.96 1017.35 1017.74 1018.10 1018.43 1018.72 1018.96 1019.17 1019.35 1019.51 1019.67 1019.83 1020.00 1020.18 1020.37 1020.57 1020.77 1020.95 1021.11 1021.25 1021.35 1021.44 1021.50 1021.55 1021.60 1021.66 1021.74 1021.84 1021.97 1022.12 1022.30 1022.48 1022.66 1022.84 1023.00 1023.15 1023.28 1023.39
1015.66 1015.77 1015.93 1016.16 1016.44 1016.77 1017.12 1017.49 1017.85 1018.19 1018.49 1018.76 1018.98 1019.17 1019.33 1019.48 1019.64 1019.80 1019.98 1020.19 1020.41 1020.64 1020.86 1021.08 1021.26 1021.41 1021.53 1021.61 1021.66 1021.68 1021.70 1021.72 1021.75 1021.81 1021.89 1022.00 1022.13 1022.28 1022.44 1022.59 1022.75 1022.89 1023.02
1015.98 1016.01 1016.10 1016.24 1016.45 1016.71 1017.02 1017.35 1017.69 1018.02 1018.32 1018.59 1018.82 1019.01 1019.17 1019.32 1019.46 1019.62 1019.80 1020.00 1020.23 1020.48 1020.73 1020.97 1021.19 1021.37 1021.50 1021.59 1021.64 1021.64 1021.62 1021.59 1021.57 1021.56 1021.58 1021.63 1021.71 1021.83 1021.97 1022.12 1022.29 1022.45 1022.61
1016.41 1016.39 1016.40 1016.47 1016.61 1016.80 1017.04 1017.32 1017.62 1017.93 1018.21 1018.47 1018.69 1018.88 1019.04 1019.17 1019.31 1019.45 1019.62 1019.81 1020.02 1020.26 1020.51 1020.75 1020.98 1021.17 1021.31 1021.40 1021.44 1021.44 1021.40 1021.34 1021.27 1021.22 1021.19 1021.20 1021.24 1021.33 1021.45 1021.61 1021.78 1021.96 1022.15
1016.89 1016.82 1016.79 1016.80 1016.86 1016.99 1017.17 1017.39 1017.64 1017.90 1018.16 1018.40 1018.60 1018.78 1018.92 1019.05 1019.16 1019.28 1019.41 1019.57 1019.75 1019.95 1020.17 1020.39 1020.59 1020.77 1020.91 1021.00 1021.04 1021.04 1021.00 1020.93 1020.86 1020.79 1020.74 1020.72 1020.75 1020.82 1020.93 1021.08 1021.26 1021.46 1021.67
1017.36 1017.26 1017.18 1017.14 1017.14 1017.21 1017.32 1017.48 1017.68 1017.90 1018.13 1018.34 1018.53 1018.68 1018.81 1018.92 1019.00 1019.09 1019.17 1019.27 1019.39 1019.53 1019.69 1019.85 1020.01 1020.16 1020.29 1020.38 1020.43 1020.45 1020.44 1020.40 1020.35 1020.30 1020.26 1020.25 1020.27 1020.34 1020.44 1020.59 1020.77 1020.98 1021.21
1017.74 1017.62 1017.51 1017.42 1017.38 1017.38 1017.44 1017.54 1017.69 1017.87 1018.07 1018.26 1018.43 1018.57 1018.68 1018.76 1018.82 1018.85 1018.87 1018.90 1018.94 1019.00 1019.07 1019.16 1019.27 1019.38 1019.49 1019.59 1019.67 1019.73 1019.77 1019.79 1019.80 1019.80 1019.81 1019.83 1019.87 1019.94 1020.04 1020.18 1020.35 1020.56 1020.78
1018.01 1017.87 1017.72 1017.59 1017.50 1017.45 1017.46 1017.52 1017.63 1017.78 1017.95 1018.12 1018.28 1018.42 1018.52 1018.57 1018.59 1018.57 1018.53 1018.48 1018.43 1018.39 1018.38 1018.39 1018.43 1018.50 1018.60 1018.71 1018.84 1018.96 1019.08 1019.18 1019.28 1019.36 1019.43 1019.50 1019.57 1019.66 1019.76 1019.89 1020.04 1020.22 1020.42
1018.15 1017.98 1017.79 1017.62 1017.48 1017.39 1017.36 1017.38 1017.46 1017.59 1017.75 1017.92 1018.08 1018.21 1018.31 1018.35 1018.34 1018.27 1018.17 1018.04 1017.91 1017.78 1017.68 1017.62 1017.60 1017.64 1017.73 1017.87 1018.04 1018.24 1018.45 1018.65 1018.84 1019.02 1019.16 1019.29 1019.40 1019.49 1019.59 1019.70 1019.82 1019.97 1020.14
1018.16 1017.96 1017.74 1017.53 1017.35 1017.22 1017.15 1017.15 1017.21 1017.33 1017.49 1017.67 1017.83 1017.97 1018.07 1018.10 1018.07 1017.97 1017.82 1017.63 1017.43 1017.23 1017.06 1016.94 1016.88 1016.90 1017.00 1017.17 1017.40 1017.67 1017.96 1018.26 1018.54 1018.80 1019.01 1019.18 1019.32 1019.42 1019.51 1019.59 1019.67 1019.78 1019.91
1018.09 1017.84 1017.59 1017.34 1017.13 1016.97 1016.88 1016.87 1016.92 1017.04 1017.20 1017.39 1017.57 1017.72 1017.82 1017.86 1017.82 1017.70 1017.52 1017.29 1017.04 1016.79 1016.58 1016.43 1016.35 1016.37 1016.48 1016.68 1016.96 1017.29 1017.66 1018.03 1018.37 1018.68 1018.94 1019.14 1019.28 1019.38 1019.44 1019.49 1019.54 1019.60 1019.68
1017.96 1017.68 1017.40 1017.13 1016.89 1016.72 1016.62 1016.59 1016.64 1016.76 1016.93 1017.12 1017.31 1017.48 1017.59 1017.63 1017.59 1017.47 1017.28 1017.04 1016.77 1016.51 1016.29 1016.12 1016.05 1016.08 1016.21 1016.44 1016.75 1017.12 1017.52 1017.93 1018.30 1018.63 1018.90 1019.09 1019.22 1019.29 1019.32 1019.33 1019.34 1019.37 1019.43
1017.81 1017.52 1017.22 1016.94 1016.69 1016.51 1016.40 1016.37 1016.42 1016.54 1016.71 1016.90 1017.10 1017.26 1017.38 1017.43 1017.40 1017.28 1017.10 1016.87 1016.62 1016.37 1016.16 1016.02 1015.96 1016.01 1016.16 1016.41 1016.74 1017.12 1017.52 1017.91 1018.27 1018.57 1018.80 1018.96 1019.05 1019.08 1019.07 1019.05 1019.04 1019.05 1019.10
1017.67 1017.38 1017.09 1016.81 1016.57 1016.39 1016.29 1016.25 1016.30 1016.41 1016.56 1016.75 1016.93 1017.09 1017.20 1017.25 1017.22 1017.12 1016.97 1016.77 1016.55 1016.34 1016.17 1016.06 1016.04 1016.12 1016.28 1016.54 1016.85 1017.21 1017.57 1017.91 1018.21 1018.45 1018.61 1018.70 1018.73 1018.71 1018.67 1018.63 1018.61 1018.63 1018.70
1017.56 1017.29 1017.01 1016.76 1016.54 1016.37 1016.27 1016.24 1016.27 1016.36 1016.49 1016.65 1016.80 1016.94 1017.03 1017.07 1017.05 1016.97 1016.84 1016.67 1016.50 1016.35 1016.23 1016.18 1016.20 1016.30 1016.48 1016.72 1017.01 1017.31 1017.61 1017.87 1018.08 1018.23 1018.30 1018.31 1018.27 1018.20 1018.13 1018.08 1018.07 1018.12 1018.24
1017.47 1017.23 1016.99 1016.76 1016.57 1016.42 1016.33 1016.29 1016.31 1016.37 1016.47 1016.58 1016.70 1016.80 1016.86 1016.88 1016.86 1016.79 1016.69 1016.56 1016.44 1016.35 1016.29 1016.29 1016.35 1016.48 1016.66 1016.89 1017.13 1017.37 1017.59 1017.76 1017.87 1017.92 1017.90 1017.83 1017.74 1017.63 1017.54 1017.50 1017.52 1017.61 1017.79
1017.38 1017.18 1016.98 1016.79 1016.63 1016.50 1016.41 1016.36 1016.36 1016.39 1016.45 1016.52 1016.59 1016.64 1016.67 1016.67 1016.63 1016.57 1016.49 1016.41 1016.34 1016.29 1016.29 1016.33 1016.43 1016.58 1016.77 1016.97 1017.18 1017.36 1017.50 1017.59 1017.61 1017.57 1017.48 1017.35 1017.21 1017.09 1017.00 1016.98 1017.04 1017.18 1017.41
Thickness
5780 5777 5773 5770 5767 5763 5760 5757 5754 5751 5749 5748 5746 5745 5744 5743 5741 5740 5740 5737 5736 5735 5734 5733 5731 5729 5728 5726 5724 5722 5719 5716 5707 5701 5698 5694 5691 5689 5686 5684 5682 5679 5674
5781 5777 5772 5768 5765 5761 5758 5754 5751 5748 5747 5745 5743 5742 5741 5739 5738 5737 5734 5733 5732 5730 5728 5727 5725 5725 5723 5721 5719 5717 5715 5711 5705 5697 5693 5689 5686 5683 5681 5679 5677 5674 5669
5782 5776 5771 5766 5763 5759 5755 5752 5749 5746 5744 5742 5740 5738 5736 5735 5734 5732 5730 5728 5727 5725 5723 5721 5719 5718 5716 5714 5713 5712 5711 5707 5702 5696 5690 5686 5683 5679 5676 5674 5671 5667 5665
5781 5775 5769 5765 5761 5757 5753 5750 5747 5744 5742 5739 5737 5734 5732 5730 5729 5727 5725 5723 5721 5719 5717 5715 5713 5711 5709 5708 5707 5705 5703 5700 5696 5692 5687 5682 5677 5674 5672 5669 5666 5663 5660
5779 5773 5768 5764 5760 5755 5751 5747 5744 5741 5739 5736 5733 5731 5729 5727 5724 5721 5720 5718 5715 5713 5711 5709 5706 5703 5701 5701 5702 5699 5696 5695 5691 5687 5682 5678 5673 5669 5667 5666 5662 5659 5654
5777 5772 5767 5762 5757 5753 5748 5745 5741 5737 5735 5732 5730 5727 5725 5722 5715 5713 5714 5712 5710 5708 5706 5703 5701 5698 5694 5692 5690 5688 5687 5686 5684 5681 5677 5672 5667 5665 5662 5661 5657 5654 5648
5775 5770 5765 5760 5755 5751 5747 5742 5738 5734 5731 5728 5725 5722 5718 5712 5708 5707 5706 5707 5705 5702 5700 5699 5699 5694 5691 5688 5684 5681 5679 5676 5674 5674 5671 5666 5662 5659 5656 5654 5649 5647 5641
5772 5767 5762 5758 5752 5748 5744 5739 5735 5731 5727 5723 5720 5717 5713 5707 5703 5702 5701 5702 5700 5696 5695 5693 5691 5688 5686 5683 5682 5678 5674 5670 5668 5666 5663 5660 5657 5652 5650 5648 5644 5640 5636
5770 5765 5761 5756 5750 5745 5740 5735 5732 5728 5723 5719 5716 5712 5708 5703 5698 5697 5696 5697 5694 5691 5689 5686 5685 5681 5675 5675 5675 5672 5669 5665 5660 5657 5654 5651 5647 5644 5642 5642 5639 5636 5632
5769 5763 5759 5754 5748 5743 5737 5733 5728 5724 5720 5716 5711 5708 5705 5700 5694 5693 5691 5694 5690 5687 5683 5680 5674 5672 5668 5668 5669 5667 5663 5660 5659 5654 5649 5645 5642 5639 5635 5632 5632 5629 5626
5768 5761 5756 5750 5744 5739 5734 5729 5724 5721 5716 5712 5707 5704 5700 5696 5690 5687 5685 5688 5687 5684 5681 5677 5670 5664 5661 5660 5660 5659 5655 5653 5653 5651 5647 5644 5640 5635 5631 5627 5623 5621 5618
5763 5756 5750 5745 5741 5735 5729 5724 5720 5716 5711 5707 5703 5700 5697 5692 5687 5682 5679 5677 5677 5677 5675 5672 5664 5657 5655 5653 5652 5649 5647 5646 5649 5647 5643 5639 5635 5631 5627 5622 5616 5612 5607
5757 5751 5746 5741 5736 5731 5725 5720 5716 5711 5710 5706 5702 5699 5695 5691 5683 5677 5673 5670 5668 5669 5667 5660 5655 5651 5649 5648 5644 5642 5642 5644 5643 5640 5637 5633 5629 5624 5620 5615 5611 5605 5601
5751 5745 5740 5735 5731 5726 5722 5718 5714 5710 5707 5703 5700 5697 5693 5688 5683 5677 5672 5667 5662 5661 5659 5653 5649 5647 5645 5643 5641 5640 5639 5637 5636 5633 5630 5626 5623 5618 5614 5611 5607 5602 5597
5745 5740 5736 5731 5727 5721 5716 5712 5709 5705 5702 5697 5695 5693 5688 5684 5678 5672 5670 5667 5664 5660 5655 5653 5651 5648 5646 5643 5640 5637 5634 5631 5628 5625 5623 5620 5616 5612 5608 5604 5599 5596 5591
5739 5734 5732 5727 5722 5717 5711 5704 5696 5694 5689 5686 5683 5681 5679 5674 5668 5663 5659 5656 5653 5649 5648 5649 5647 5644 5642 5639 5636 5632 5628 5625 5622 5619 5616 5612 5609 5604 5600 5597 5592 5588 5583
5735 5731 5727 5723 5718 5714 5708 5702 5695 5686 5679 5676 5674 5670 5667 5662 5659 5655 5651 5648 5644 5641 5642 5643 5640 5637 5635 5632 5630 5627 5623 5619 5614 5611 5608 5604 5601 5597 5593 5589 5584 5580 5575
5729 5724 5720 5717 5713 5709 5704 5699 5694 5688 5682 5677 5668 5662 5659 5654 5650 5647 5643 5640 5640 5637 5639 5637 5634 5631 5628 5625 5622 5619 5616 5612 5607 5604 5601 5597 5593 5589 5585 5581 5576 5570 5566
5722 5719 5714 5711 5707 5703 5698 5694 5690 5685 5680 5675 5669 5660 5651 5647 5642 5639 5636 5639 5640 5638 5635 5632 5629 5625 5622 5618 5614 5611 5607 5603 5599 5596 5592 5588 5585 5581 5576 5572 5568 5560 5556
5713 5709 5706 5704 5700 5696 5691 5687 5683 5678 5675 5671 5666 5660 5651 5645 5643 5639 5635 5636 5635 5632 5629 5625 5622 5618 5614 5610 5606 5602 5599 5594 5590 5587 5584 5580 5576 5572 5568 5564 5560 5555 5550
5706 5701 5696 5696 5694 5690 5686 5682 5678 5673 5669 5665 5661 5655 5647 5646 5643 5639 5635 5631 5628 5624 5621 5617 5613 5609 5606 5601 5598 5594 5590 5587 5582 5579 5575 5570 5567 5563 5559 5556 5552 5548 5544
5699 5696 5692 5689 5687 5683 5679 5675 5671 5667 5663 5658 5653 5647 5638 5638 5637 5634 5629 5626 5622 5618 5614 5609 5606 5602 5598 5594 5590 5586 5583 5579 5574 5570 5566 5562 5558 5554 5551 5548 5544 5540 5535
5690 5689 5685 5682 5678 5672 5670 5667 5664 5659 5655 5651 5646 5640 5634 5631 5630 5627 5623 5619 5615 5611 5606 5602 5599 5596 5591 5586 5582 5579 5575 5571 5566 5561 5557 5554 5551 5547 5543 5540 5535 5531 5528
5681 5679 5676 5674 5670 5666 5663 5659 5656 5651 5647 5643 5638 5633 5629 5625 5622 5618 5615 5612 5607 5603 5599 5595 5591 5588 5582 5578 5575 5571 5566 5561 5556 5553 5549 5546 5543 5540 5536 5532 5528 5525 5520
5672 5670 5668 5666 5663 5659 5655 5651 5648 5644 5640 5635 5631 5626 5623 5619 5615 5612 5608 5604 5600 5596 5592 5588 5584 5580 5575 5571 5566 5562 5557 5552 5547 5543 5540 5538 5535 5531 5528 5524 5521 5517 5513
5664 5663 5661 5659 5656 5652 5648 5645 5641 5637 5633 5628 5624 5620 5616 5612 5609 5605 5601 5597 5593 5589 5585 5581 5576 5572 5568 5563 5558 5553 5547 5543 5538 5534 5530 5529 5528 5525 5520 5517 5513 5509 5505